Regional Weather Roundup
Issued by NWS

Home | Current Version | Previous Version | Text Only | Print | Product List | Glossary On
Versions: 1 2 3 4 5 6 7 8 9 10 11 12 13 14 15 16 17 18 19 20 21 22 23 24 25 26 27 28 29 30 31 32 33 34 35 36 37 38 39 40 41 42 43 44 45 46 47 48 49 50
000
ASUS45 KABQ 172010
RWRNM
WEATHER ROUNDUP FOR NEW MEXICO
NATIONAL WEATHER SERVICE ALBUQUERQUE NM
200 PM MDT THU APR 17 2014

NOTE: "FAIR" MEANS FEW OR NO CLOUDS BELOW 12,000 FEET AGL WITH NO
       SIGNIFICANT WEATHER OR OBSTRUCTIONS TO VISION.

      THIS PRODUCT IS RELEASED AS TWO VERSIONS.  ONE VERSION NEAR
      THE TOP OF THE HOUR CONTAINING PRELIMINARY DATA FROM ALBUQUERQUE
      AND OTHER STATIONS.  A FINAL VERSION WITH ADDITIONAL DATA IS
      ISSUED ABOUT 10 MINUTES AFTER THE HOUR.

NMZ501-503-504-510>518-172100-
NORTHWEST PLATEAU/NORTHCENTRAL MOUNTAINS

CITY           SKY/WX    TMP DP  RH WIND       PRES   REMARKS
FARMINGTON     SUNNY     65  18  16 W14G20    30.10F
LOS ALAMOS     SUNNY     55  27  34 S9        30.17F
SANTA FE       SUNNY     58  27  30 E12G21    30.16F
TAOS           PTSUNNY   55  27  33 S8        30.17F
ANGEL FIRE     MOCLDY    45  37  73 NE3       30.20S

$$
NMZ402-403-502-505>509-172100-
WESTCENTRAL MOUNTAINS/SOUTHWEST MOUNTAINS

CITY           SKY/WX    TMP DP  RH WIND       PRES   REMARKS
GALLUP         SUNNY     67  21  17 NW10G22   30.13F
GRANTS         SUNNY     64  15  15 NE10      30.15F
SILVER CITY    SUNNY     73  14  10 SE13      30.11S

$$
NMZ407-409-411-412-172100-
SOUTHERN DESERTS

CITY           SKY/WX    TMP DP  RH WIND       PRES   REMARKS
LORDSBURG      FAIR      77  18  10 NE5       30.04S
DEMING         SUNNY     79  19  10 SE10      30.05F
LAS CRUCES     SUNNY     76  20  12 NE6       30.08F
HOLLOMAN AFB   MOSUNNY   74  24  15 VRB5      30.07F
ALAMOGORDO     MOSUNNY   73  23  15 NW12G17   30.08F
T OR C         SUNNY     71  24  17 NE10G16   30.09F

$$
NMZ519>523-172100-
CENTRAL VALLEYS/CENTRAL HIGHLANDS

CITY           SKY/WX    TMP DP  RH WIND       PRES   REMARKS
ALBUQUERQUE    PTSUNNY   64  24  21 VRB3      30.14F
DOUBLE EAGLE   MOSUNNY   63  25  23 VRB7      30.15F
MORIARTY ARPT  FAIR      57  28  32 S9G20     30.20S
CLINES CORNERS SUNNY     49  29  46 SE6       30.21S
BELEN          FAIR      66  26  22 CALM      30.14S
SOCORRO        FAIR      68  23  17 CALM      30.12F

$$
NMZ524>526-539-540-172100-
SOUTHCENTRAL MOUNTAINS

CITY           SKY/WX    TMP DP  RH WIND       PRES   REMARKS
RUIDOSO        SUNNY     59  23  25 NW8       30.21F

$$
NMZ527>531-172100-
NORTHEAST HIGHLANDS/NORTHEAST PLAINS

CITY           SKY/WX    TMP DP  RH WIND       PRES   REMARKS
LAS VEGAS      CLOUDY    47  30  51 S5        30.21F
RATON          CLOUDY    46  35  65 W9        30.20F
CLAYTON        CLOUDY    47  33  58 E9        30.22F

$$
NMZ532>537-172100-
EASTCENTRAL PLAINS

CITY           SKY/WX    TMP DP  RH WIND       PRES   REMARKS
TUCUMCARI      MOSUNNY   58  35  42 NE10G22   30.19F
CANNON AFB     SUNNY     60  33  36 NE12G18   30.16F
CLOVIS AIRPORT SUNNY     59  34  38 NE12G23   30.20S

$$
NMZ028-029-538-172100-
SOUTHEAST PLAINS

CITY           SKY/WX    TMP DP  RH WIND       PRES   REMARKS
ROSWELL        SUNNY     69  32  25 N16       30.14F
ARTESIA        SUNNY     66  32  28 N13G21    30.13F
CARLSBAD       SUNNY     71  31  22 N16G25    30.11F
HOBBS          SUNNY     68  32  26 N13G18    30.12F


$$



USA.gov is the U.S. government's official web portal to all federal, state and local government web resources and services.